Time,TemperatureF,DewpointF,PressureIn,WindDirection,WindDirectionDegrees,WindSpeedMPH,WindSpeedGustMPH,Humidity,HourlyPrecipIn,Conditions,Clouds,dailyrainin,SoftwareType,DateUTC
2010-07-09 00:01:00,68.3,65.6,30.07,NNW,331,0.0,0.0,91,0.00,,,0.00,WeatherTracker,2010-07-09 05:01:00,
2010-07-09 00:07:00,68.3,65.2,30.06,NNW,331,0.0,0.0,90,0.00,,,0.00,WeatherTracker,2010-07-09 05:07:00,
2010-07-09 00:12:00,68.2,65.5,30.06,NNW,331,0.0,0.0,91,0.00,,,0.00,WeatherTracker,2010-07-09 05:12:00,
2010-07-09 00:17:00,68.3,65.6,30.06,NNW,331,0.0,0.0,91,0.00,,,0.00,WeatherTracker,2010-07-09 05:17:00,
2010-07-09 00:22:00,68.3,65.6,30.06,NNW,331,0.0,0.0,91,0.00,,,0.00,WeatherTracker,2010-07-09 05:22:00,
2010-07-09 00:27:00,68.3,65.6,30.06,NNW,331,0.0,0.0,91,0.00,,,0.00,WeatherTracker,2010-07-09 05:27:00,
2010-07-09 00:32:00,68.5,65.8,30.07,NNW,331,0.0,0.0,91,0.00,,,0.00,WeatherTracker,2010-07-09 05:32:00,
2010-07-09 00:37:00,68.6,65.9,30.07,NNW,331,0.0,0.0,91,0.00,,,0.00,WeatherTracker,2010-07-09 05:37:00,
2010-07-09 00:42:00,68.6,65.9,30.06,NNW,331,0.0,0.0,91,0.00,,,0.00,WeatherTracker,2010-07-09 05:42:00,
2010-07-09 00:47:00,68.6,65.9,30.06,NNW,331,0.0,0.0,91,0.00,,,0.00,WeatherTracker,2010-07-09 05:47:00,
2010-07-09 00:48:00,68.6,65.9,30.06,NNW,331,0.0,0.0,91,0.00,,,0.00,WeatherTracker,2010-07-09 05:48:00,
2010-07-09 00:53:00,68.6,65.9,30.06,NNW,331,0.0,0.0,91,0.00,,,0.00,WeatherTracker,2010-07-09 05:53:00,
2010-07-09 00:58:00,68.5,65.8,30.06,NNW,331,0.0,0.0,91,0.00,,,0.00,WeatherTracker,2010-07-09 05:58:00,
2010-07-09 01:03:00,68.5,65.8,30.05,NNW,331,0.0,0.0,91,0.00,,,0.00,WeatherTracker,2010-07-09 06:03:00,
2010-07-09 01:08:00,68.4,65.7,30.06,NNW,331,0.0,0.0,91,0.00,,,0.00,WeatherTracker,2010-07-09 06:08:00,
2010-07-09 01:13:00,68.3,65.6,30.06,NNW,331,0.0,0.0,91,0.00,,,0.00,WeatherTracker,2010-07-09 06:13:00,
2010-07-09 01:18:00,68.3,65.2,30.06,NNW,331,0.0,0.0,90,0.00,,,0.00,WeatherTracker,2010-07-09 06:18:00,
2010-07-09 01:23:00,68.2,65.1,30.06,NNW,331,0.0,0.0,90,0.00,,,0.00,WeatherTracker,2010-07-09 06:23:00,
2010-07-09 01:28:00,68.1,65.4,30.06,NNW,331,0.0,0.0,91,0.00,,,0.00,WeatherTracker,2010-07-09 06:28:00,
2010-07-09 01:33:00,68.0,65.3,30.06,NNW,331,0.0,0.0,91,0.00,,,0.00,WeatherTracker,2010-07-09 06:33:00,
2010-07-09 01:38:00,67.9,65.2,30.06,NNW,331,0.0,0.0,91,0.00,,,0.00,WeatherTracker,2010-07-09 06:38:00,
2010-07-09 01:43:00,67.8,65.1,30.06,NNW,331,0.0,0.0,91,0.00,,,0.00,WeatherTracker,2010-07-09 06:43:00,
2010-07-09 01:48:00,67.7,65.0,30.06,NNW,331,0.0,0.0,91,0.00,,,0.00,WeatherTracker,2010-07-09 06:48:00,
2010-07-09 01:53:00,67.6,64.9,30.06,NNW,331,0.0,0.0,91,0.00,,,0.00,WeatherTracker,2010-07-09 06:53:00,
2010-07-09 01:58:00,67.5,64.8,30.06,NNW,331,0.0,0.0,91,0.00,,,0.00,WeatherTracker,2010-07-09 06:58:00,
2010-07-09 02:03:00,67.3,64.6,30.06,NNW,331,0.0,0.0,91,0.00,,,0.00,WeatherTracker,2010-07-09 07:03:00,
2010-07-09 02:08:00,67.1,64.4,30.06,NNW,331,0.0,0.0,91,0.00,,,0.00,WeatherTracker,2010-07-09 07:08:00,
2010-07-09 02:13:00,66.9,64.2,30.07,NNW,331,0.0,0.0,91,0.00,,,0.00,WeatherTracker,2010-07-09 07:13:00,
2010-07-09 02:18:00,66.8,64.4,30.07,NNW,331,0.0,0.0,92,0.00,,,0.00,WeatherTracker,2010-07-09 07:18:00,
2010-07-09 02:23:00,66.8,64.4,30.07,NNW,331,0.0,0.0,92,0.00,,,0.00,WeatherTracker,2010-07-09 07:23:00,
2010-07-09 02:29:00,66.8,64.4,30.06,NNW,331,0.0,0.0,92,0.00,,,0.00,WeatherTracker,2010-07-09 07:29:00,
2010-07-09 02:34:00,66.8,64.7,30.07,NNW,331,0.0,0.0,93,0.00,,,0.00,WeatherTracker,2010-07-09 07:34:00,
2010-07-09 02:39:00,66.8,64.7,30.06,NNW,331,0.0,0.0,93,0.00,,,0.00,WeatherTracker,2010-07-09 07:39:00,
2010-07-09 02:44:00,66.8,64.7,30.07,NNW,331,0.0,0.0,93,0.00,,,0.00,WeatherTracker,2010-07-09 07:44:00,
2010-07-09 02:49:00,66.9,64.8,30.06,NNW,331,0.0,0.0,93,0.00,,,0.00,WeatherTracker,2010-07-09 07:49:00,
2010-07-09 02:54:00,66.8,64.7,30.06,NNW,331,0.0,0.0,93,0.00,,,0.00,WeatherTracker,2010-07-09 07:54:00,
2010-07-09 02:59:00,66.8,64.7,30.06,NNW,331,0.0,0.0,93,0.00,,,0.00,WeatherTracker,2010-07-09 07:59:00,
2010-07-09 03:04:00,66.7,64.6,30.06,NNW,331,0.0,0.0,93,0.00,,,0.00,WeatherTracker,2010-07-09 08:04:00,
2010-07-09 03:09:00,66.6,64.5,30.06,NNW,331,0.0,0.0,93,0.00,,,0.00,WeatherTracker,2010-07-09 08:09:00,
2010-07-09 03:14:00,66.5,64.4,30.06,NNW,331,0.0,0.0,93,0.00,,,0.00,WeatherTracker,2010-07-09 08:14:00,
2010-07-09 03:19:00,66.4,64.0,30.06,NNW,331,0.0,0.0,92,0.00,,,0.00,WeatherTracker,2010-07-09 08:19:00,
2010-07-09 03:24:00,66.4,64.0,30.06,NNW,331,0.0,0.0,92,0.00,,,0.00,WeatherTracker,2010-07-09 08:24:00,
2010-07-09 03:29:00,66.4,64.0,30.06,NNW,331,0.0,0.0,92,0.00,,,0.00,WeatherTracker,2010-07-09 08:29:00,
2010-07-09 03:34:00,66.4,64.0,30.06,NNW,331,0.0,0.0,92,0.00,,,0.00,WeatherTracker,2010-07-09 08:34:00,
2010-07-09 03:39:00,66.3,63.9,30.06,NNW,331,0.0,0.0,92,0.00,,,0.00,WeatherTracker,2010-07-09 08:39:00,
2010-07-09 03:44:00,66.2,63.8,30.06,NNW,331,0.0,0.0,92,0.00,,,0.00,WeatherTracker,2010-07-09 08:44:00,
2010-07-09 03:49:00,66.1,63.7,30.06,NNW,331,0.0,0.0,92,0.00,,,0.00,WeatherTracker,2010-07-09 08:49:00,
2010-07-09 03:54:00,66.0,63.6,30.06,NNW,331,0.0,0.0,92,0.00,,,0.00,WeatherTracker,2010-07-09 08:54:00,
2010-07-09 03:59:00,65.8,63.4,30.06,NNW,331,0.0,0.0,92,0.00,,,0.00,WeatherTracker,2010-07-09 08:59:00,
2010-07-09 04:04:00,65.7,63.0,30.06,NNW,331,0.0,0.0,91,0.00,,,0.00,WeatherTracker,2010-07-09 09:04:00,
2010-07-09 04:09:00,65.6,62.9,30.06,NNW,331,0.0,0.0,91,0.00,,,0.00,WeatherTracker,2010-07-09 09:09:00,
2010-07-09 04:14:00,65.4,62.7,30.06,NNW,331,0.0,0.0,91,0.00,,,0.00,WeatherTracker,2010-07-09 09:14:00,
2010-07-09 04:19:00,65.4,62.4,30.06,NNW,331,0.0,0.0,90,0.00,,,0.00,WeatherTracker,2010-07-09 09:19:00,
2010-07-09 04:24:00,65.5,62.5,30.06,NNW,331,0.0,0.0,90,0.00,,,0.00,WeatherTracker,2010-07-09 09:24:00,
2010-07-09 04:30:00,65.6,62.6,30.06,NNW,331,0.0,0.0,90,0.00,,,0.00,WeatherTracker,2010-07-09 09:30:00,
2010-07-09 04:35:00,65.4,62.4,30.06,NNW,331,0.0,0.0,90,0.00,,,0.00,WeatherTracker,2010-07-09 09:35:00,
2010-07-09 04:40:00,65.3,62.0,30.06,NNW,331,0.0,0.0,89,0.00,,,0.00,WeatherTracker,2010-07-09 09:40:00,
2010-07-09 04:45:00,65.2,62.2,30.06,NNW,331,0.0,0.0,90,0.00,,,0.00,WeatherTracker,2010-07-09 09:45:00,
2010-07-09 04:50:00,65.0,62.0,30.06,NNW,331,0.0,0.0,90,0.00,,,0.00,WeatherTracker,2010-07-09 09:50:00,
2010-07-09 04:55:00,64.9,61.9,30.06,NNW,331,0.0,0.0,90,0.00,,,0.00,WeatherTracker,2010-07-09 09:55:00,
2010-07-09 05:00:00,64.7,61.7,30.07,NNW,331,0.0,0.0,90,0.00,,,0.00,WeatherTracker,2010-07-09 10:00:00,
2010-07-09 05:05:00,64.5,61.5,30.07,NNW,331,0.0,0.0,90,0.00,,,0.00,WeatherTracker,2010-07-09 10:05:00,
2010-07-09 05:10:00,64.3,61.6,30.07,NNW,331,0.0,0.0,91,0.00,,,0.00,WeatherTracker,2010-07-09 10:10:00,
2010-07-09 05:15:00,64.1,61.4,30.07,NNW,331,0.0,0.0,91,0.00,,,0.00,WeatherTracker,2010-07-09 10:15:00,
2010-07-09 05:20:00,63.9,61.2,30.07,NNW,331,0.0,0.0,91,0.00,,,0.00,WeatherTracker,2010-07-09 10:20:00,
2010-07-09 05:25:00,63.8,61.1,30.07,NNW,331,0.0,0.0,91,0.00,,,0.00,WeatherTracker,2010-07-09 10:25:00,
2010-07-09 05:30:00,63.6,61.2,30.07,NNW,331,0.0,0.0,92,0.00,,,0.00,WeatherTracker,2010-07-09 10:30:00,
2010-07-09 05:35:00,63.5,61.1,30.07,NNW,331,0.0,0.0,92,0.00,,,0.00,WeatherTracker,2010-07-09 10:35:00,
2010-07-09 05:40:00,63.4,61.0,30.08,NNW,331,0.0,0.0,92,0.00,,,0.00,WeatherTracker,2010-07-09 10:40:00,
2010-07-09 05:45:00,63.4,61.0,30.08,NNW,331,0.0,0.0,92,0.00,,,0.00,WeatherTracker,2010-07-09 10:45:00,
2010-07-09 05:50:00,63.3,60.9,30.08,NNW,331,0.0,0.0,92,0.00,,,0.00,WeatherTracker,2010-07-09 10:50:00,
2010-07-09 05:55:00,63.2,60.8,30.08,NNW,331,0.0,0.0,92,0.00,,,0.00,WeatherTracker,2010-07-09 10:55:00,
2010-07-09 06:00:00,63.2,61.1,30.08,NNW,331,0.0,0.0,93,0.00,,,0.00,WeatherTracker,2010-07-09 11:00:00,
2010-07-09 06:05:00,63.1,61.0,30.08,NNW,331,0.0,0.0,93,0.00,,,0.00,WeatherTracker,2010-07-09 11:05:00,
2010-07-09 06:10:00,63.1,61.0,30.08,NNW,331,0.0,0.0,93,0.00,,,0.00,WeatherTracker,2010-07-09 11:10:00,
2010-07-09 06:16:00,63.1,61.0,30.08,NNW,331,0.0,0.0,93,0.00,,,0.00,WeatherTracker,2010-07-09 11:16:00,
2010-07-09 06:21:00,63.1,61.0,30.08,NNW,331,0.0,0.0,93,0.00,,,0.00,WeatherTracker,2010-07-09 11:21:00,
2010-07-09 06:26:00,63.1,61.0,30.08,NNW,331,0.0,0.0,93,0.00,,,0.00,WeatherTracker,2010-07-09 11:26:00,
2010-07-09 06:31:00,63.1,61.0,30.09,NNW,331,0.0,0.0,93,0.00,,,0.00,WeatherTracker,2010-07-09 11:31:00,
2010-07-09 06:36:00,63.2,61.1,30.09,NNW,331,0.0,0.0,93,0.00,,,0.00,WeatherTracker,2010-07-09 11:36:00,
2010-07-09 06:41:00,63.3,61.5,30.09,NNW,331,0.0,0.0,94,0.00,,,0.00,WeatherTracker,2010-07-09 11:41:00,
2010-07-09 06:46:00,63.4,61.6,30.09,NNW,331,0.0,0.0,94,0.00,,,0.00,WeatherTracker,2010-07-09 11:46:00,
2010-07-09 06:51:00,63.4,61.6,30.09,NNW,331,0.0,0.0,94,0.00,,,0.00,WeatherTracker,2010-07-09 11:51:00,
2010-07-09 06:56:00,63.6,61.8,30.09,NNW,331,0.0,0.0,94,0.00,,,0.00,WeatherTracker,2010-07-09 11:56:00,
2010-07-09 07:01:00,63.9,62.1,30.09,NNW,331,0.0,0.0,94,0.00,,,0.00,WeatherTracker,2010-07-09 12:01:00,
2010-07-09 07:06:00,64.2,62.4,30.09,NNW,331,0.0,0.0,94,0.00,,,0.00,WeatherTracker,2010-07-09 12:06:00,
2010-07-09 07:11:00,64.6,62.8,30.09,NNW,331,0.0,0.0,94,0.00,,,0.00,WeatherTracker,2010-07-09 12:11:00,
2010-07-09 07:16:00,65.1,63.0,30.09,NNW,331,1.0,0.0,93,0.00,,,0.00,WeatherTracker,2010-07-09 12:16:00,
2010-07-09 07:21:00,65.9,63.5,30.08,North,360,0.0,0.0,92,0.00,,,0.00,WeatherTracker,2010-07-09 12:21:00,
2010-07-09 07:26:00,66.5,63.8,30.08,North,360,0.0,0.0,91,0.00,,,0.00,WeatherTracker,2010-07-09 12:26:00,
2010-07-09 07:31:00,66.9,63.9,30.08,North,5,0.0,0.0,90,0.00,,,0.00,WeatherTracker,2010-07-09 12:31:00,
2010-07-09 07:36:00,67.3,63.6,30.09,North,360,0.0,0.0,88,0.00,,,0.00,WeatherTracker,2010-07-09 12:36:00,
2010-07-09 07:41:00,67.9,63.6,30.08,North,5,0.0,0.0,86,0.00,,,0.00,WeatherTracker,2010-07-09 12:41:00,
2010-07-09 07:46:00,68.4,63.7,30.09,North,5,0.0,0.0,85,0.00,,,0.00,WeatherTracker,2010-07-09 12:46:00,
2010-07-09 07:51:00,68.8,63.8,30.08,North,5,0.0,0.0,84,0.00,,,0.00,WeatherTracker,2010-07-09 12:51:00,
2010-07-09 07:56:00,69.2,63.8,30.08,North,5,0.0,0.0,83,0.00,,,0.00,WeatherTracker,2010-07-09 12:56:00,
2010-07-09 08:01:00,69.6,63.9,30.09,North,360,0.0,0.0,82,0.00,,,0.00,WeatherTracker,2010-07-09 13:01:00,
2010-07-09 08:06:00,70.1,63.6,30.09,NNE,14,0.0,0.0,80,0.00,,,0.00,WeatherTracker,2010-07-09 13:06:00,
2010-07-09 08:11:00,70.6,63.8,30.09,ENE,69,0.0,0.0,79,0.00,,,0.00,WeatherTracker,2010-07-09 13:11:00,
2010-07-09 08:16:00,71.2,64.0,30.09,East,99,1.0,0.0,78,0.00,,,0.00,WeatherTracker,2010-07-09 13:16:00,
2010-07-09 08:21:00,71.5,64.3,30.08,East,101,1.0,0.0,78,0.00,,,0.00,WeatherTracker,2010-07-09 13:21:00,
2010-07-09 08:26:00,71.6,64.7,30.08,SE,136,4.0,0.0,79,0.00,,,0.00,WeatherTracker,2010-07-09 13:26:00,
2010-07-09 08:31:00,72.0,63.6,30.08,East,96,0.0,0.0,75,0.00,,,0.00,WeatherTracker,2010-07-09 13:31:00,
2010-07-09 08:36:00,72.7,64.7,30.08,East,95,0.0,0.0,76,0.00,,,0.00,WeatherTracker,2010-07-09 13:36:00,
2010-07-09 08:41:00,73.2,64.8,30.08,SSE,163,1.0,0.0,75,0.00,,,0.00,WeatherTracker,2010-07-09 13:41:00,
2010-07-09 08:46:00,73.6,64.8,30.08,ESE,106,2.0,0.0,74,0.00,,,0.00,WeatherTracker,2010-07-09 13:46:00,
2010-07-09 08:52:00,74.1,64.5,30.08,ESE,123,4.0,0.0,72,0.00,,,0.00,WeatherTracker,2010-07-09 13:52:00,
2010-07-09 08:57:00,74.3,64.3,30.08,SE,140,2.0,0.0,71,0.00,,,0.00,WeatherTracker,2010-07-09 13:57:00,
2010-07-09 09:02:00,74.4,63.6,30.09,SSE,159,0.0,0.0,69,0.00,,,0.00,WeatherTracker,2010-07-09 14:02:00,
2010-07-09 09:07:00,74.8,63.9,30.09,NW,304,0.0,0.0,69,0.00,,,0.00,WeatherTracker,2010-07-09 14:07:00,
2010-07-09 09:12:00,75.3,63.1,30.09,ESE,106,2.0,0.0,66,0.00,,,0.00,WeatherTracker,2010-07-09 14:12:00,
2010-07-09 09:17:00,75.5,63.3,30.09,ESE,109,1.0,0.0,66,0.00,,,0.00,WeatherTracker,2010-07-09 14:17:00,
2010-07-09 09:22:00,75.9,64.1,30.09,ENE,57,1.0,0.0,67,0.00,,,0.00,WeatherTracker,2010-07-09 14:22:00,
2010-07-09 09:27:00,76.5,64.3,30.09,ENE,57,0.0,0.0,66,0.00,,,0.00,WeatherTracker,2010-07-09 14:27:00,
2010-07-09 09:32:00,76.8,63.2,30.09,South,170,0.0,0.0,63,0.00,,,0.00,WeatherTracker,2010-07-09 14:32:00,
2010-07-09 09:37:00,76.9,63.8,30.09,NNW,333,2.0,0.0,64,0.00,,,0.00,WeatherTracker,2010-07-09 14:37:00,
2010-07-09 09:42:00,77.2,63.6,30.09,NW,316,0.0,0.0,63,0.00,,,0.00,WeatherTracker,2010-07-09 14:42:00,
2010-07-09 09:47:00,77.4,63.3,30.09,SE,146,1.0,0.0,62,0.00,,,0.00,WeatherTracker,2010-07-09 14:47:00,
2010-07-09 09:52:00,77.8,64.2,30.09,North,355,3.0,0.0,63,0.00,,,0.00,WeatherTracker,2010-07-09 14:52:00,
2010-07-09 09:57:00,77.9,63.3,30.09,East,88,0.0,0.0,61,0.00,,,0.00,WeatherTracker,2010-07-09 14:57:00,
2010-07-09 10:02:00,77.8,63.3,30.09,ESE,122,0.0,0.0,61,0.00,,,0.00,WeatherTracker,2010-07-09 15:02:00,
2010-07-09 10:08:00,77.9,64.7,30.09,ENE,76,2.0,0.0,64,0.00,,,0.00,WeatherTracker,2010-07-09 15:08:00,
2010-07-09 10:13:00,78.3,63.3,30.09,ESE,110,2.0,0.0,60,0.00,,,0.00,WeatherTracker,2010-07-09 15:13:00,
2010-07-09 10:18:00,78.5,64.8,30.09,East,92,0.0,0.0,63,0.00,,,0.00,WeatherTracker,2010-07-09 15:18:00,
2010-07-09 10:23:00,78.7,64.1,30.09,NNW,348,1.0,0.0,61,0.00,,,0.00,WeatherTracker,2010-07-09 15:23:00,
2010-07-09 10:28:00,78.7,63.6,30.09,East,94,0.0,0.0,60,0.00,,,0.00,WeatherTracker,2010-07-09 15:28:00,
2010-07-09 10:33:00,79.4,63.3,30.09,ESE,105,3.0,0.0,58,0.00,,,0.00,WeatherTracker,2010-07-09 15:33:00,
2010-07-09 10:38:00,79.3,62.2,30.09,SE,132,1.0,0.0,56,0.00,,,0.00,WeatherTracker,2010-07-09 15:38:00,
2010-07-09 10:43:00,79.6,64.0,30.09,WNW,286,0.0,0.0,59,0.00,,,0.00,WeatherTracker,2010-07-09 15:43:00,
2010-07-09 10:48:00,79.8,62.2,30.09,East,98,3.0,0.0,55,0.00,,,0.00,WeatherTracker,2010-07-09 15:48:00,
2010-07-09 10:53:00,80.3,63.7,30.09,ENE,58,3.0,0.0,57,0.00,,,0.00,WeatherTracker,2010-07-09 15:53:00,
2010-07-09 10:58:00,80.6,63.9,30.09,ESE,115,1.0,0.0,57,0.00,,,0.00,WeatherTracker,2010-07-09 15:58:00,
2010-07-09 11:03:00,80.7,64.0,30.09,ESE,114,4.0,0.0,57,0.00,,,0.00,WeatherTracker,2010-07-09 16:03:00,
2010-07-09 11:08:00,80.8,63.6,30.09,East,101,1.0,0.0,56,0.00,,,0.00,WeatherTracker,2010-07-09 16:08:00,
2010-07-09 11:13:00,81.0,63.8,30.09,NW,324,6.0,0.0,56,0.00,,,0.00,WeatherTracker,2010-07-09 16:13:00,
2010-07-09 11:18:00,80.9,63.2,30.08,NW,318,1.0,0.0,55,0.00,,,0.00,WeatherTracker,2010-07-09 16:18:00,
2010-07-09 11:23:00,81.5,64.8,30.08,NNW,348,2.0,0.0,57,0.00,,,0.00,WeatherTracker,2010-07-09 16:23:00,
2010-07-09 11:28:00,81.8,65.1,30.08,North,355,3.0,0.0,57,0.00,,,0.00,WeatherTracker,2010-07-09 16:28:00,
2010-07-09 11:33:00,81.7,62.9,30.08,North,360,0.0,0.0,53,0.00,,,0.00,WeatherTracker,2010-07-09 16:33:00,
2010-07-09 11:38:00,82.2,65.4,30.08,North,10,0.0,0.0,57,0.00,,,0.00,WeatherTracker,2010-07-09 16:38:00,
2010-07-09 11:43:00,82.8,66.0,30.08,SE,130,3.0,0.0,57,0.00,,,0.00,WeatherTracker,2010-07-09 16:43:00,
2010-07-09 11:48:00,82.6,60.9,30.08,NNW,327,0.0,0.0,48,0.00,,,0.00,WeatherTracker,2010-07-09 16:48:00,
2010-07-09 11:53:00,82.9,62.9,30.08,SE,134,1.0,0.0,51,0.00,,,0.00,WeatherTracker,2010-07-09 16:53:00,
2010-07-09 11:59:00,83.3,60.9,30.08,ENE,76,6.0,0.0,47,0.00,,,0.00,WeatherTracker,2010-07-09 16:59:00,
2010-07-09 12:04:00,83.2,62.6,30.07,North,349,2.0,0.0,50,0.00,,,0.00,WeatherTracker,2010-07-09 17:04:00,
2010-07-09 12:09:00,83.2,59.6,30.07,SE,146,3.0,0.0,45,0.00,,,0.00,WeatherTracker,2010-07-09 17:09:00,
2010-07-09 12:14:00,82.8,61.1,30.07,NNW,327,0.0,0.0,48,0.00,,,0.00,WeatherTracker,2010-07-09 17:14:00,
2010-07-09 12:19:00,83.5,62.9,30.07,West,275,3.0,0.0,50,0.00,,,0.00,WeatherTracker,2010-07-09 17:19:00,
2010-07-09 12:24:00,83.6,62.4,30.07,ESE,103,1.0,0.0,49,0.00,,,0.00,WeatherTracker,2010-07-09 17:24:00,
2010-07-09 12:29:00,83.7,62.5,30.07,NNE,32,2.0,0.0,49,0.00,,,0.00,WeatherTracker,2010-07-09 17:29:00,
2010-07-09 12:34:00,83.8,60.2,30.07,ENE,76,1.0,0.0,45,0.00,,,0.00,WeatherTracker,2010-07-09 17:34:00,
2010-07-09 12:39:00,84.1,61.1,30.07,NE,45,0.0,0.0,46,0.00,,,0.00,WeatherTracker,2010-07-09 17:39:00,
2010-07-09 12:44:00,84.4,60.1,30.07,South,185,3.0,0.0,44,0.00,,,0.00,WeatherTracker,2010-07-09 17:44:00,
2010-07-09 12:49:00,84.5,59.5,30.07,NNE,15,3.0,0.0,43,0.00,,,0.00,WeatherTracker,2010-07-09 17:49:00,
2010-07-09 12:54:00,84.3,60.6,30.07,East,88,3.0,0.0,45,0.00,,,0.00,WeatherTracker,2010-07-09 17:54:00,
2010-07-09 12:59:00,84.2,59.9,30.07,ESE,118,1.0,0.0,44,0.00,,,0.00,WeatherTracker,2010-07-09 17:59:00,
2010-07-09 13:04:00,84.1,59.8,30.07,NE,44,5.0,0.0,44,0.00,,,0.00,WeatherTracker,2010-07-09 18:04:00,
2010-07-09 13:09:00,84.0,57.7,30.07,SE,138,4.0,0.0,41,0.00,,,0.00,WeatherTracker,2010-07-09 18:09:00,
2010-07-09 13:15:00,83.8,57.6,30.06,ENE,76,4.0,0.0,41,0.00,,,0.00,WeatherTracker,2010-07-09 18:15:00,
2010-07-09 13:20:00,83.9,60.9,30.06,NE,51,2.0,0.0,46,0.00,,,0.00,WeatherTracker,2010-07-09 18:20:00,
2010-07-09 13:25:00,83.8,56.9,30.06,SSE,161,1.0,0.0,40,0.00,,,0.00,WeatherTracker,2010-07-09 18:25:00,
2010-07-09 13:30:00,83.9,59.0,30.06,ESE,113,5.0,0.0,43,0.00,,,0.00,WeatherTracker,2010-07-09 18:30:00,
2010-07-09 13:31:00,83.9,58.3,30.06,ENE,72,5.0,0.0,42,0.00,,,0.00,WeatherTracker,2010-07-09 18:31:00,
2010-07-09 13:36:00,84.3,60.6,30.06,SE,132,0.0,0.0,45,0.00,,,0.00,WeatherTracker,2010-07-09 18:36:00,
2010-07-09 13:41:00,83.9,57.6,30.06,SE,137,1.0,0.0,41,0.00,,,0.00,WeatherTracker,2010-07-09 18:41:00,
2010-07-09 13:46:00,83.7,58.1,30.06,South,172,0.0,0.0,42,0.00,,,0.00,WeatherTracker,2010-07-09 18:46:00,
2010-07-09 13:51:00,84.2,60.5,30.06,SW,219,0.0,0.0,45,0.00,,,0.00,WeatherTracker,2010-07-09 18:51:00,
2010-07-09 13:56:00,85.2,58.1,30.05,East,90,2.0,0.0,40,0.00,,,0.00,WeatherTracker,2010-07-09 18:56:00,
2010-07-09 14:01:00,84.5,58.2,30.06,South,178,2.0,0.0,41,0.00,,,0.00,WeatherTracker,2010-07-09 19:01:00,
2010-07-09 14:06:00,84.1,59.8,30.05,SSE,165,0.0,0.0,44,0.00,,,0.00,WeatherTracker,2010-07-09 19:06:00,
2010-07-09 14:11:00,84.4,61.9,30.05,SSE,165,2.0,0.0,47,0.00,,,0.00,WeatherTracker,2010-07-09 19:11:00,
2010-07-09 14:16:00,84.4,59.4,30.05,ESE,118,1.0,0.0,43,0.00,,,0.00,WeatherTracker,2010-07-09 19:16:00,
2010-07-09 14:21:00,84.5,58.9,30.05,East,91,0.0,0.0,42,0.00,,,0.00,WeatherTracker,2010-07-09 19:21:00,
2010-07-09 14:26:00,84.6,58.3,30.05,ENE,57,4.0,0.0,41,0.00,,,0.00,WeatherTracker,2010-07-09 19:26:00,
2010-07-09 14:31:00,84.7,57.0,30.05,SW,227,0.0,0.0,39,0.00,,,0.00,WeatherTracker,2010-07-09 19:31:00,
2010-07-09 14:36:00,84.8,57.8,30.05,East,84,2.0,0.0,40,0.00,,,0.00,WeatherTracker,2010-07-09 19:36:00,
2010-07-09 14:41:00,84.6,58.9,30.04,ESE,107,2.0,0.0,42,0.00,,,0.00,WeatherTracker,2010-07-09 19:41:00,
2010-07-09 14:46:00,84.7,57.0,30.04,ENE,57,1.0,0.0,39,0.00,,,0.00,WeatherTracker,2010-07-09 19:46:00,
2010-07-09 14:51:00,85.0,56.5,30.04,ESE,107,1.0,0.0,38,0.00,,,0.00,WeatherTracker,2010-07-09 19:51:00,
2010-07-09 14:56:00,85.0,60.6,30.04,ESE,109,1.0,0.0,44,0.00,,,0.00,WeatherTracker,2010-07-09 19:56:00,
2010-07-09 15:01:00,85.1,56.6,30.04,ESE,105,1.0,0.0,38,0.00,,,0.00,WeatherTracker,2010-07-09 20:01:00,
2010-07-09 15:06:00,85.0,57.2,30.04,SSE,159,2.0,0.0,39,0.00,,,0.00,WeatherTracker,2010-07-09 20:06:00,
2010-07-09 15:11:00,85.1,58.0,30.04,SE,140,0.0,0.0,40,0.00,,,0.00,WeatherTracker,2010-07-09 20:11:00,
2010-07-09 15:16:00,85.6,60.5,30.04,SSE,160,2.0,0.0,43,0.00,,,0.00,WeatherTracker,2010-07-09 20:16:00,
2010-07-09 15:21:00,85.2,60.8,30.04,East,94,1.0,0.0,44,0.00,,,0.00,WeatherTracker,2010-07-09 20:21:00,
2010-07-09 15:26:00,85.3,60.9,30.04,SSE,149,2.0,0.0,44,0.00,,,0.00,WeatherTracker,2010-07-09 20:26:00,
2010-07-09 15:31:00,85.5,58.4,30.04,ESE,117,4.0,0.0,40,0.00,,,0.00,WeatherTracker,2010-07-09 20:31:00,
2010-07-09 15:36:00,85.2,57.4,30.04,East,101,1.0,0.0,39,0.00,,,0.00,WeatherTracker,2010-07-09 20:36:00,
2010-07-09 15:41:00,85.4,57.6,30.04,SE,145,1.0,0.0,39,0.00,,,0.00,WeatherTracker,2010-07-09 20:41:00,
2010-07-09 15:46:00,85.7,59.9,30.03,South,179,3.0,0.0,42,0.00,,,0.00,WeatherTracker,2010-07-09 20:46:00,
2010-07-09 15:52:00,85.6,59.2,30.03,East,101,1.0,0.0,41,0.00,,,0.00,WeatherTracker,2010-07-09 20:52:00,
2010-07-09 15:57:00,85.5,61.1,30.03,ESE,111,0.0,0.0,44,0.00,,,0.00,WeatherTracker,2010-07-09 20:57:00,
2010-07-09 16:02:00,86.0,63.4,30.03,East,98,3.0,0.0,47,0.00,,,0.00,WeatherTracker,2010-07-09 21:02:00,
2010-07-09 16:07:00,84.8,58.4,30.03,East,101,1.0,0.0,41,0.00,,,0.00,WeatherTracker,2010-07-09 21:07:00,
2010-07-09 16:12:00,84.8,59.1,30.03,SW,229,0.0,0.0,42,0.00,,,0.00,WeatherTracker,2010-07-09 21:12:00,
2010-07-09 16:17:00,84.5,60.8,30.03,ENE,57,0.0,0.0,45,0.00,,,0.00,WeatherTracker,2010-07-09 21:17:00,
2010-07-09 16:22:00,84.2,60.5,30.03,ENE,57,0.0,0.0,45,0.00,,,0.00,WeatherTracker,2010-07-09 21:22:00,
2010-07-09 16:27:00,83.8,58.2,30.03,East,96,3.0,0.0,42,0.00,,,0.00,WeatherTracker,2010-07-09 21:27:00,
2010-07-09 16:32:00,84.1,58.5,30.03,NE,53,4.0,0.0,42,0.00,,,0.00,WeatherTracker,2010-07-09 21:32:00,
2010-07-09 16:37:00,84.5,60.8,30.02,NNE,24,1.0,0.0,45,0.00,,,0.00,WeatherTracker,2010-07-09 21:37:00,
2010-07-09 16:42:00,85.0,64.8,30.02,ESE,107,3.0,0.0,51,0.00,,,0.00,WeatherTracker,2010-07-09 21:42:00,
2010-07-09 16:47:00,83.9,60.3,30.02,ESE,115,0.0,0.0,45,0.00,,,0.00,WeatherTracker,2010-07-09 21:47:00,
2010-07-09 16:52:00,83.1,58.9,30.02,ESE,115,0.0,0.0,44,0.00,,,0.00,WeatherTracker,2010-07-09 21:52:00,
2010-07-09 16:57:00,83.4,62.8,30.02,SE,143,0.0,0.0,50,0.00,,,0.00,WeatherTracker,2010-07-09 21:57:00,
2010-07-09 17:02:00,83.8,58.2,30.02,SE,130,0.0,0.0,42,0.00,,,0.00,WeatherTracker,2010-07-09 22:02:00,
2010-07-09 17:07:00,84.5,62.6,30.02,East,90,5.0,0.0,48,0.00,,,0.00,WeatherTracker,2010-07-09 22:07:00,
2010-07-09 17:12:00,84.4,61.3,30.02,SE,134,2.0,0.0,46,0.00,,,0.00,WeatherTracker,2010-07-09 22:12:00,
2010-07-09 17:17:00,83.8,60.8,30.02,WSW,248,1.0,0.0,46,0.00,,,0.00,WeatherTracker,2010-07-09 22:17:00,
2010-07-09 17:22:00,83.9,64.9,30.02,SW,219,3.0,0.0,53,0.00,,,0.00,WeatherTracker,2010-07-09 22:22:00,
2010-07-09 17:27:00,83.8,65.4,30.02,SE,134,0.0,0.0,54,0.00,,,0.00,WeatherTracker,2010-07-09 22:27:00,
2010-07-09 17:32:00,83.9,62.1,30.01,SW,223,3.0,0.0,48,0.00,,,0.00,WeatherTracker,2010-07-09 22:32:00,
2010-07-09 17:37:00,84.0,61.6,30.02,ESE,123,4.0,0.0,47,0.00,,,0.00,WeatherTracker,2010-07-09 22:37:00,
2010-07-09 17:42:00,83.8,62.6,30.02,SSW,200,2.0,0.0,49,0.00,,,0.00,WeatherTracker,2010-07-09 22:42:00,
2010-07-09 17:47:00,83.8,62.6,30.01,ESE,104,1.0,0.0,49,0.00,,,0.00,WeatherTracker,2010-07-09 22:47:00,
2010-07-09 17:52:00,83.7,61.9,30.01,ESE,103,0.0,0.0,48,0.00,,,0.00,WeatherTracker,2010-07-09 22:52:00,
2010-07-09 17:58:00,84.0,63.9,30.01,ESE,104,0.0,0.0,51,0.00,,,0.00,WeatherTracker,2010-07-09 22:58:00,
2010-07-09 18:03:00,84.2,60.5,30.01,East,97,0.0,0.0,45,0.00,,,0.00,WeatherTracker,2010-07-09 23:03:00,
2010-07-09 18:08:00,84.8,62.3,30.01,East,97,0.0,0.0,47,0.00,,,0.00,WeatherTracker,2010-07-09 23:08:00,
2010-07-09 18:13:00,84.8,61.1,30.01,East,84,0.0,0.0,45,0.00,,,0.00,WeatherTracker,2010-07-09 23:13:00,
2010-07-09 18:18:00,84.8,64.6,30.00,East,84,0.0,0.0,51,0.00,,,0.00,WeatherTracker,2010-07-09 23:18:00,
2010-07-09 18:23:00,84.6,60.9,30.01,East,80,2.0,0.0,45,0.00,,,0.00,WeatherTracker,2010-07-09 23:23:00,
2010-07-09 18:28:00,84.5,60.2,30.01,East,81,0.0,0.0,44,0.00,,,0.00,WeatherTracker,2010-07-09 23:28:00,
2010-07-09 18:33:00,84.4,60.7,30.00,NE,38,0.0,0.0,45,0.00,,,0.00,WeatherTracker,2010-07-09 23:33:00,
2010-07-09 18:38:00,84.2,60.5,30.00,SSE,159,4.0,0.0,45,0.00,,,0.00,WeatherTracker,2010-07-09 23:38:00,
2010-07-09 18:43:00,83.5,64.5,30.00,SE,126,0.0,0.0,53,0.00,,,0.00,WeatherTracker,2010-07-09 23:43:00,
2010-07-09 18:48:00,82.7,60.4,30.00,SE,126,0.0,0.0,47,0.00,,,0.00,WeatherTracker,2010-07-09 23:48:00,
2010-07-09 18:53:00,82.5,60.8,30.00,SE,125,0.0,0.0,48,0.00,,,0.00,WeatherTracker,2010-07-09 23:53:00,
2010-07-09 18:58:00,82.3,65.5,30.00,SE,125,0.0,0.0,57,0.00,,,0.00,WeatherTracker,2010-07-09 23:58:00,
2010-07-09 19:03:00,81.7,63.4,30.00,SE,125,0.0,0.0,54,0.00,,,0.00,WeatherTracker,2010-07-10 00:03:00,
2010-07-09 19:08:00,81.6,64.4,30.00,SE,125,0.0,0.0,56,0.00,,,0.00,WeatherTracker,2010-07-10 00:08:00,
2010-07-09 19:13:00,81.2,61.3,30.00,SE,125,0.0,0.0,51,0.00,,,0.00,WeatherTracker,2010-07-10 00:13:00,
2010-07-09 19:18:00,80.9,63.2,30.00,SE,138,0.0,0.0,55,0.00,,,0.00,WeatherTracker,2010-07-10 00:18:00,
2010-07-09 19:23:00,80.9,63.2,30.00,SE,138,0.0,0.0,55,0.00,,,0.00,WeatherTracker,2010-07-10 00:23:00,
2010-07-09 19:28:00,80.9,63.2,30.00,SE,138,0.0,0.0,55,0.00,,,0.00,WeatherTracker,2010-07-10 00:28:00,
2010-07-09 19:33:00,80.7,64.0,30.00,SE,138,0.0,0.0,57,0.00,,,0.00,WeatherTracker,2010-07-10 00:33:00,
2010-07-09 19:38:00,80.6,62.9,29.99,SE,138,0.0,0.0,55,0.00,,,0.00,WeatherTracker,2010-07-10 00:38:00,
2010-07-09 19:43:00,80.2,64.1,29.99,SE,138,0.0,0.0,58,0.00,,,0.00,WeatherTracker,2010-07-10 00:43:00,
2010-07-09 19:48:00,79.7,64.6,29.99,SE,138,0.0,0.0,60,0.00,,,0.00,WeatherTracker,2010-07-10 00:48:00,
2010-07-09 19:53:00,79.4,64.8,29.99,SE,138,0.0,0.0,61,0.00,,,0.00,WeatherTracker,2010-07-10 00:53:00,
2010-07-09 19:58:00,79.0,64.8,30.00,SE,138,0.0,0.0,62,0.00,,,0.00,WeatherTracker,2010-07-10 00:58:00,
2010-07-09 20:04:00,78.7,64.6,29.99,SE,138,0.0,0.0,62,0.00,,,0.00,WeatherTracker,2010-07-10 01:04:00,
2010-07-09 20:09:00,78.2,64.6,29.99,SE,138,0.0,0.0,63,0.00,,,0.00,WeatherTracker,2010-07-10 01:09:00,
2010-07-09 20:14:00,77.6,64.9,29.99,SE,138,0.0,0.0,65,0.00,,,0.00,WeatherTracker,2010-07-10 01:14:00,
2010-07-09 20:19:00,77.2,65.4,30.00,SE,138,0.0,0.0,67,0.00,,,0.00,WeatherTracker,2010-07-10 01:19:00,
2010-07-09 20:24:00,76.8,65.0,30.00,SE,138,0.0,0.0,67,0.00,,,0.00,WeatherTracker,2010-07-10 01:24:00,
2010-07-09 20:29:00,76.4,65.5,30.00,SE,138,0.0,0.0,69,0.00,,,0.00,WeatherTracker,2010-07-10 01:29:00,
2010-07-09 20:34:00,76.0,65.5,30.00,SE,138,0.0,0.0,70,0.00,,,0.00,WeatherTracker,2010-07-10 01:34:00,
2010-07-09 20:39:00,75.7,65.6,30.00,SE,138,0.0,0.0,71,0.00,,,0.00,WeatherTracker,2010-07-10 01:39:00,
2010-07-09 20:44:00,75.2,65.5,30.00,SE,138,0.0,0.0,72,0.00,,,0.00,WeatherTracker,2010-07-10 01:44:00,
2010-07-09 20:49:00,74.8,65.6,30.00,SE,138,0.0,0.0,73,0.00,,,0.00,WeatherTracker,2010-07-10 01:49:00,
2010-07-09 20:54:00,74.4,65.2,30.00,SE,138,0.0,0.0,73,0.00,,,0.00,WeatherTracker,2010-07-10 01:54:00,
2010-07-09 20:59:00,74.1,65.7,30.00,SE,138,0.0,0.0,75,0.00,,,0.00,WeatherTracker,2010-07-10 01:59:00,
2010-07-09 21:04:00,73.7,65.3,30.00,SE,138,0.0,0.0,75,0.00,,,0.00,WeatherTracker,2010-07-10 02:04:00,
2010-07-09 21:09:00,73.4,65.0,30.00,SE,138,0.0,0.0,75,0.00,,,0.00,WeatherTracker,2010-07-10 02:09:00,
2010-07-09 21:14:00,73.1,65.1,30.00,SE,138,0.0,0.0,76,0.00,,,0.00,WeatherTracker,2010-07-10 02:14:00,
2010-07-09 21:19:00,72.8,65.5,30.00,SE,138,0.0,0.0,78,0.00,,,0.00,WeatherTracker,2010-07-10 02:19:00,
2010-07-09 21:24:00,72.5,65.2,30.00,SE,138,0.0,0.0,78,0.00,,,0.00,WeatherTracker,2010-07-10 02:24:00,
2010-07-09 21:29:00,72.2,65.3,30.00,SE,138,0.0,0.0,79,0.00,,,0.00,WeatherTracker,2010-07-10 02:29:00,
2010-07-09 21:34:00,71.9,65.0,30.00,SE,138,0.0,0.0,79,0.00,,,0.00,WeatherTracker,2010-07-10 02:34:00,
2010-07-09 21:39:00,71.7,65.2,30.00,SE,138,0.0,0.0,80,0.00,,,0.00,WeatherTracker,2010-07-10 02:39:00,
2010-07-09 21:44:00,71.3,64.4,30.00,SE,138,0.0,0.0,79,0.00,,,0.00,WeatherTracker,2010-07-10 02:44:00,
2010-07-09 21:49:00,71.1,64.6,30.01,SE,138,0.0,0.0,80,0.00,,,0.00,WeatherTracker,2010-07-10 02:49:00,
2010-07-09 21:54:00,71.0,64.9,30.01,SE,138,0.0,0.0,81,0.00,,,0.00,WeatherTracker,2010-07-10 02:54:00,
2010-07-09 21:59:00,70.8,64.7,30.01,SE,138,0.0,0.0,81,0.00,,,0.00,WeatherTracker,2010-07-10 02:59:00,
2010-07-09 22:04:00,70.5,64.7,30.00,SE,138,0.0,0.0,82,0.00,,,0.00,WeatherTracker,2010-07-10 03:04:00,
2010-07-09 22:09:00,70.3,64.5,30.01,SE,138,0.0,0.0,82,0.00,,,0.00,WeatherTracker,2010-07-10 03:09:00,
2010-07-09 22:15:00,70.0,64.2,30.01,SE,138,0.0,0.0,82,0.00,,,0.00,WeatherTracker,2010-07-10 03:15:00,
2010-07-09 22:20:00,69.9,64.5,30.01,SE,138,0.0,0.0,83,0.00,,,0.00,WeatherTracker,2010-07-10 03:20:00,
2010-07-09 22:25:00,69.7,64.3,30.01,SE,138,0.0,0.0,83,0.00,,,0.00,WeatherTracker,2010-07-10 03:25:00,
2010-07-09 22:30:00,69.6,64.2,30.01,SE,138,0.0,0.0,83,0.00,,,0.00,WeatherTracker,2010-07-10 03:30:00,
2010-07-09 22:35:00,69.4,64.0,30.01,SE,138,0.0,0.0,83,0.00,,,0.00,WeatherTracker,2010-07-10 03:35:00,
2010-07-09 22:40:00,69.2,64.2,30.01,SE,138,0.0,0.0,84,0.00,,,0.00,WeatherTracker,2010-07-10 03:40:00,
2010-07-09 22:45:00,69.0,64.0,30.01,SE,138,0.0,0.0,84,0.00,,,0.00,WeatherTracker,2010-07-10 03:45:00,
2010-07-09 22:50:00,68.9,64.2,30.01,SE,138,0.0,0.0,85,0.00,,,0.00,WeatherTracker,2010-07-10 03:50:00,
2010-07-09 22:55:00,68.8,64.4,30.01,SE,138,0.0,0.0,86,0.00,,,0.00,WeatherTracker,2010-07-10 03:55:00,
2010-07-09 23:00:00,68.7,64.3,30.01,SE,138,0.0,0.0,86,0.00,,,0.00,WeatherTracker,2010-07-10 04:00:00,
2010-07-09 23:05:00,68.5,64.1,30.01,SE,138,0.0,0.0,86,0.00,,,0.00,WeatherTracker,2010-07-10 04:05:00,
2010-07-09 23:10:00,68.4,64.0,30.01,SE,138,0.0,0.0,86,0.00,,,0.00,WeatherTracker,2010-07-10 04:10:00,
2010-07-09 23:15:00,68.2,64.2,30.01,SE,138,0.0,0.0,87,0.00,,,0.00,WeatherTracker,2010-07-10 04:15:00,
2010-07-09 23:20:00,68.0,64.0,30.01,SE,138,0.0,0.0,87,0.00,,,0.00,WeatherTracker,2010-07-10 04:20:00,
2010-07-09 23:25:00,67.9,63.9,30.01,SE,138,0.0,0.0,87,0.00,,,0.00,WeatherTracker,2010-07-10 04:25:00,
2010-07-09 23:30:00,67.8,64.1,30.01,SE,138,0.0,0.0,88,0.00,,,0.00,WeatherTracker,2010-07-10 04:30:00,
2010-07-09 23:36:00,67.7,64.0,30.01,SE,138,0.0,0.0,88,0.00,,,0.00,WeatherTracker,2010-07-10 04:36:00,
2010-07-09 23:41:00,67.6,63.9,30.01,SE,138,0.0,0.0,88,0.00,,,0.00,WeatherTracker,2010-07-10 04:41:00,
2010-07-09 23:46:00,67.4,63.7,30.01,SE,138,0.0,0.0,88,0.00,,,0.00,WeatherTracker,2010-07-10 04:46:00,
2010-07-09 23:51:00,67.4,64.0,30.01,SE,138,0.0,0.0,89,0.00,,,0.00,WeatherTracker,2010-07-10 04:51:00,
2010-07-09 23:56:00,67.3,63.9,30.01,SE,138,0.0,0.0,89,0.00,,,0.00,WeatherTracker,2010-07-10 04:56:00,